INTELSAT 33E DEB, 61993

Orbit data source: Space-Track

INTELSAT 33E DEB, 61993 is space debris in GEO originally from a launch on Wed, 24 Aug 2016 UTC launched from the French Guiana (FRGUI). Debris objects in space refer to the collection of defunct objects orbiting the Earth. Examples of debris include non-operational satellites, rocket bodies, and fragments generated from explosions, collisions, or faulty payload assembly.

Not visible in the next 10 days
Identifier
61993, 2016-053K
Orbit
GEO
Country
Flag of UnknownUnknown / ITSO
Related business
Manufacturer
Boeing/ES
Mission
Spacecraft
Bus & Motor
Unknown
Mass
Unknown
Launch date (UTC)
2016-08-24 (9 years ago)
Launch vehicle
Unknown
Launch site
French Guiana (FRGUI)
Object type
Payload
Rocket body
Debris
Shape & HBR
Unknown shape, 1.1 m
Radar Cross Section
RCS unknown

Expand to show TLE details & history
Last TLE update: 1 day ago

TLE from 1 day ago
0 INTELSAT 33E DEB
1 61993U 16053K   25339.79099124  .00000113  00000-0  00000-0 0  9991
2 61993   0.9832  74.1734 0083259 308.3305 337.8771  1.01197249  4179
Epoch: 2025-12-05T18:59Z
TLE epoch observation values (Epoch: 2025-12-05T18:59:01.643Z)
Latitude
-0.93434°
Longitude
0.41748°
Altitude
35,207.058 km
Speed
3.108 km/s
True Right ascension
00h 00m 00s
True Declination
0° 56' 00"
Sunlit
Object was in daylight at epoch
Visualization orbit readout
Latitude
Unknown
Longitude
Unknown
Altitude
Unknown
Speed
Unknown
Apparent Right ascension
Unknown
Apparent Declination
Unknown
Sunlit
N/A
Visualization observer readout
Local Sidereal Time
01:05:37
Azimuth
Unknown
Elevation
Unknown
Doppler factor
Unknown
Orbital elements
Apogee altitude
35,879.134 km
Perigee altitude
35,181.285 km
Semi-major axis
41,908.346 km
Eccentricity
0.00833
Inclination
0.9832°
RAAN
74.1734°
Arg. of periapsis
308.3305°
True anomaly
337.51431°
Mean anomaly
337.8771°
Eccentric anomaly
337.69605°
Mean motion
0.25298 °/min
Orbital period
1,423.02 mins
BSTAR
0
Loading maneuver chart data...
Computing Atmospheric mass density...
Loading historical data...
Loading historical data...
Loading historical data...
Loading historical data...
Loading historical data...
Loading historical data...
Loading historical data...

Documentation

Showing up to 5 results
|